Tracking 19651 objects as of 23-Apr-2019
HD Live streaming from Space Station
objects crossing your sky now

COSMOS 1823 DEB

Track COSMOS 1823 DEB now!
10-day predictions


NORAD ID: 39806
Int'l Code: 1987-020EE
Perigee: 1,466.9 km
Apogee: 1,572.2 km
Inclination: 73.6 °
Period: 116.3 minutes
Semi major axis: 7890 km
RCS: 0.0154 m2 (small)
Launch date: February 20, 1987
Source: Commonwealth of Independent States (former USSR) (CIS)
Launch site: PLESETSK MISSILE AND SPACE COMPLEX (PKMTR)

Note: This is SATELLITE DEBRIS
aabbcc
Your satellite tracking list
Your tracking list is empty




NASA's NSSDC Master Catalog

Two Line Element Set (TLE):
1 39806U 87020EE  19110.40278115 +.00000103 +00000-0 +91015-3 0  9996
2 39806 073.6307 116.5455 0066715 124.0316 236.7086 12.38640817222124
Source of the keplerian elements: AFSPC